Location: Newark
(55.7083°N, 13.1992°E)
Time: 00:04:16
(UTC+00:00)

Envisat - Pass Details

Date: 08 October 2022
Orbit: 763 x 765 km, 98.2° (Epoch: 09 December)

Event Time Altitude Azimuth Distance (km) Brightness Sun altitude
Rises 04:07:45 0° 14° (NNE) 3,249 6.5 -11.5°
Reaches altitude 10° 04:10:04 10° 12° (NNE) 2,318 5.7 -11.1°
Maximum altitude 04:15:08 68° 291° (WNW) 828 3.0 -10.4°
Drops below altitude 10° 04:20:11 10° 209° (SSW) 2,302 5.2 -9.7°
Sets 04:22:29 0° 207° (SSW) 3,224 5.9 -9.4°
